{"data":{"norad_id":39076,"epoch":"2026-05-24T22:06:52.075584Z","epoch_age_seconds":81530,"freshness":"FRESH","line1":"1 39076U 13005E   26144.92143606 -.00000210  00000+0 -59204-3 0  9999","line2":"2 39076  51.9896 354.4591 0000792 163.1098 196.9795 12.62259992613072","mean_motion":12.62259992,"eccentricity":7.92e-5,"inclination_deg":51.9896,"raan_deg":354.4591,"arg_perigee_deg":163.1098,"mean_anomaly_deg":196.9795,"bstar":-0.00059204,"rev_number":61307,"period_min":114.08109336638,"perigee_km":1413.0129990166,"apogee_km":1414.2472149263,"semimajor_km":7791.7671069715,"source":"CELESTRAK","updated_at":"2026-05-25T13:38:23.046969Z"}}